,,PA_Meas_PMT16A,,PR_Meas_QMR101_102,,RH_Meas_QMH101,,SR_Meas_QMS101,,TA_Meas_QMH101,,GenWind,,GenWind,
time,status,PA,status,PR,status,RH,status,SR,status,TA,status,DirAvg,status,SpdAvg,
2012-11-09, 06:41:04,VALID,915.788,VALID,0,VALID,95.4528,VALID,53.5057,VALID,19.3172,VALID,124,VALID,0,
2012-11-09, 06:42:04,VALID,916.453,VALID,0,VALID,95.3156,VALID,55.8694,VALID,19.3157,VALID,144,VALID,0,
2012-11-09, 06:43:04,VALID,915.338,VALID,0,VALID,95.1783,VALID,58.1257,VALID,19.3352,VALID,129,VALID,0,
2012-11-09, 06:44:04,VALID,915.332,VALID,0,VALID,95.0106,VALID,60.167,VALID,19.3547,VALID,155,VALID,0,
2012-11-09, 06:45:04,VALID,915.385,VALID,0,VALID,94.8505,VALID,62.6382,VALID,19.3547,VALID,123,VALID,2.3918,
2012-11-09, 06:46:04,VALID,916.547,VALID,0,VALID,94.7057,VALID,64.787,VALID,19.3742,VALID,134,VALID,2.18789,
2012-11-09, 06:47:04,VALID,916.344,VALID,0,VALID,94.5761,VALID,66.8284,VALID,19.3937,VALID,112,VALID,1.90469,
2012-11-09, 06:48:04,VALID,916.508,VALID,0,VALID,94.5227,VALID,69.0847,VALID,19.3937,VALID,122,VALID,1.76992,
2012-11-09, 06:49:04,VALID,914.85,VALID,0,VALID,94.5075,VALID,71.0186,VALID,19.3937,VALID,132,VALID,0.516797,
2012-11-09, 06:50:04,VALID,915.942,VALID,0,VALID,94.416,VALID,72.9525,VALID,19.3937,VALID,102,VALID,4.07227,
2012-11-09, 06:51:04,VALID,915.847,VALID,0,VALID,94.1873,VALID,74.779,VALID,19.4132,VALID,113,VALID,3.4125,
2012-11-09, 06:52:04,VALID,915.697,VALID,0,VALID,94.0806,VALID,76.3907,VALID,19.4523,VALID,128,VALID,1.99844,
2012-11-09, 06:53:04,VALID,916.065,VALID,0,VALID,94.0272,VALID,78.0023,VALID,19.4327,VALID,134,VALID,1.92773,
2012-11-09, 06:54:04,VALID,916.541,VALID,0,VALID,94.0196,VALID,79.399,VALID,19.4523,VALID,108,VALID,2.13867,
2012-11-09, 06:55:04,VALID,915.937,VALID,0,VALID,94.012,VALID,80.7957,VALID,19.4718,VALID,115,VALID,2.30781,
2012-11-09, 06:56:04,VALID,915.898,VALID,0,VALID,93.9662,VALID,82.085,VALID,19.4718,VALID,118,VALID,2.39648,
2012-11-09, 06:57:04,VALID,915.078,VALID,0,VALID,93.9662,VALID,83.1595,VALID,19.4718,VALID,109,VALID,2.01836,
2012-11-09, 06:58:04,VALID,916.532,VALID,0,VALID,93.9052,VALID,84.2339,VALID,19.4913,VALID,117,VALID,2.60898,
2012-11-09, 06:59:04,VALID,916.034,VALID,0,VALID,93.8061,VALID,85.4157,VALID,19.5108,VALID,111,VALID,0.0195313,
2012-11-09, 07:00:04,VALID,916.057,VALID,0,VALID,93.7451,VALID,86.4901,VALID,19.5498,VALID,109,VALID,0,
2012-11-09, 07:01:04,VALID,916.088,VALID,0,VALID,93.8366,VALID,87.5645,VALID,19.5483,VALID,106,VALID,0,
2012-11-09, 07:02:04,VALID,916.06,VALID,0,VALID,93.707,VALID,88.5315,VALID,19.5693,VALID,106,VALID,0,
2012-11-09, 07:03:04,VALID,916.1,VALID,0,VALID,93.8976,VALID,89.6059,VALID,19.5888,VALID,104,VALID,0,
2012-11-09, 07:04:04,VALID,916.106,VALID,0,VALID,93.5393,VALID,90.6803,VALID,19.5873,VALID,134,VALID,0.00664063,
2012-11-09, 07:05:04,VALID,916.07,VALID,0,VALID,93.5317,VALID,91.6473,VALID,19.6473,VALID,120,VALID,0,
2012-11-09, 07:06:04,VALID,916.064,VALID,0,VALID,93.425,VALID,92.7217,VALID,19.6668,VALID,138,VALID,0.00195313,
2012-11-09, 07:07:04,VALID,916.087,VALID,0,VALID,93.3945,VALID,93.7961,VALID,19.6863,VALID,112,VALID,0,
2012-11-09, 07:08:04,VALID,916.123,VALID,0,VALID,93.303,VALID,94.6557,VALID,19.6863,VALID,133,VALID,0,
2012-11-09, 07:09:04,VALID,916.149,VALID,0,VALID,93.1658,VALID,95.6226,VALID,19.7253,VALID,117,VALID,2.15117,
2012-11-09, 07:10:04,VALID,916.181,VALID,0,VALID,92.9981,VALID,96.4822,VALID,19.7253,VALID,131,VALID,0,
2012-11-09, 07:11:04,VALID,916.205,VALID,0,VALID,92.9371,VALID,97.4491,VALID,19.7448,VALID,123,VALID,0,
2012-11-09, 07:12:04,VALID,916.226,VALID,0,VALID,93.0133,VALID,98.3087,VALID,19.7643,VALID,136,VALID,0,
2012-11-09, 07:13:04,VALID,916.239,VALID,0,VALID,92.9676,VALID,99.2756,VALID,19.7838,VALID,131,VALID,0,
2012-11-09, 07:14:04,VALID,916.309,VALID,0,VALID,92.7693,VALID,100.243,VALID,19.8033,VALID,117,VALID,0,
2012-11-09, 07:15:04,VALID,916.292,VALID,0,VALID,92.5635,VALID,101.102,VALID,19.8213,VALID,126,VALID,0,
2012-11-09, 07:16:04,VALID,916.277,VALID,0,VALID,92.533,VALID,102.069,VALID,19.8213,VALID,116,VALID,0,
2012-11-09, 07:17:04,VALID,916.339,VALID,0,VALID,92.8227,VALID,103.036,VALID,19.8408,VALID,123,VALID,0,
2012-11-09, 07:18:04,VALID,916.356,VALID,0,VALID,92.6931,VALID,104.11,VALID,19.8213,VALID,111,VALID,0,
2012-11-09, 07:19:04,VALID,916.369,VALID,0,VALID,92.8303,VALID,105.185,VALID,19.8018,VALID,128,VALID,0,
2012-11-09, 07:20:04,VALID,916.366,VALID,0,VALID,92.9981,VALID,106.259,VALID,19.8213,VALID,153,VALID,0,
2012-11-09, 07:21:04,VALID,916.373,VALID,0,VALID,92.9447,VALID,107.549,VALID,19.8423,VALID,141,VALID,0,
2012-11-09, 07:22:04,VALID,916.403,VALID,0,VALID,93.059,VALID,108.73,VALID,19.8618,VALID,131,VALID,0,
2012-11-09, 07:23:04,VALID,916.39,VALID,0,VALID,93.0667,VALID,110.127,VALID,19.8603,VALID,140,VALID,0,
2012-11-09, 07:24:04,VALID,916.416,VALID,0,VALID,93.2115,VALID,111.631,VALID,19.8798,VALID,127,VALID,0,
2012-11-09, 07:25:04,VALID,916.414,VALID,0,VALID,92.7922,VALID,113.028,VALID,19.9008,VALID,135,VALID,0,
2012-11-09, 07:26:04,VALID,916.459,VALID,0,VALID,93.0209,VALID,114.317,VALID,19.9398,VALID,131,VALID,0,
2012-11-09, 07:27:04,VALID,916.471,VALID,0,VALID,93.0743,VALID,115.822,VALID,19.9788,VALID,131,VALID,0,
2012-11-09, 07:28:04,VALID,916.483,VALID,0,VALID,93.0362,VALID,117.003,VALID,19.9773,VALID,164,VALID,0,
2012-11-09, 07:29:04,VALID,916.501,VALID,0,VALID,93.2115,VALID,118.4,VALID,20.0374,VALID,141,VALID,0,
2012-11-09, 07:30:04,VALID,916.533,VALID,0,VALID,93.2572,VALID,119.582,VALID,20.0553,VALID,201,VALID,0,
2012-11-09, 07:31:04,VALID,916.578,VALID,0,VALID,93.1353,VALID,120.656,VALID,20.0959,VALID,170,VALID,0,
2012-11-09, 07:32:04,VALID,916.597,VALID,0,VALID,93.364,VALID,121.623,VALID,20.1154,VALID,170,VALID,0,
2012-11-09, 07:33:04,VALID,916.627,VALID,0,VALID,93.5317,VALID,122.483,VALID,20.1934,VALID,170,VALID,0,
2012-11-09, 07:34:04,VALID,916.618,VALID,0,VALID,93.425,VALID,123.342,VALID,20.1919,VALID,171,VALID,0,
2012-11-09, 07:35:04,VALID,916.635,VALID,0,VALID,93.3487,VALID,124.202,VALID,20.1919,VALID,172,VALID,0,
2012-11-09, 07:36:04,VALID,916.639,VALID,0,VALID,93.2877,VALID,124.847,VALID,20.2114,VALID,239,VALID,0,
2012-11-09, 07:37:04,VALID,916.666,VALID,0,VALID,93.4936,VALID,125.062,VALID,20.2309,VALID,239,VALID,0,
2012-11-09, 07:38:04,VALID,916.642,VALID,0,VALID,93.4478,VALID,125.062,VALID,20.1934,VALID,239,VALID,0,
2012-11-09, 07:39:04,VALID,916.64,VALID,0,VALID,93.646,VALID,123.45,VALID,20.1724,VALID,239,VALID,0,
2012-11-09, 07:40:04,VALID,916.617,VALID,0,VALID,93.707,VALID,121.086,VALID,20.1154,VALID,239,VALID,0,
2012-11-09, 07:41:04,VALID,916.644,VALID,0,VALID,93.7985,VALID,120.334,VALID,20.0358,VALID,239,VALID,0,
2012-11-09, 07:42:04,VALID,916.613,VALID,0,VALID,93.9967,VALID,119.152,VALID,19.9773,VALID,239,VALID,0,
2012-11-09, 07:43:04,VALID,916.635,VALID,0,VALID,94.2788,VALID,121.516,VALID,19.9984,VALID,239,VALID,0,
2012-11-09, 07:44:04,VALID,916.657,VALID,0,VALID,94.5304,VALID,123.235,VALID,19.9968,VALID,239,VALID,0,
2012-11-09, 07:45:04,VALID,916.613,VALID,0,VALID,94.7591,VALID,126.566,VALID,20.0358,VALID,239,VALID,0,
2012-11-09, 07:46:04,VALID,916.632,VALID,0,VALID,94.7514,VALID,129.574,VALID,20.0959,VALID,239,VALID,0,
2012-11-09, 07:47:04,VALID,916.647,VALID,0,VALID,94.7286,VALID,131.83,VALID,20.0749,VALID,239,VALID,0,
2012-11-09, 07:48:04,VALID,916.643,VALID,0,VALID,94.7972,VALID,133.227,VALID,20.1739,VALID,239,VALID,0,
2012-11-09, 07:49:04,VALID,916.656,VALID,0,VALID,94.7438,VALID,133.979,VALID,20.1919,VALID,239,VALID,0,
2012-11-09, 07:50:04,VALID,916.644,VALID,0,VALID,94.5913,VALID,134.839,VALID,20.2504,VALID,239,VALID,0,
2012-11-09, 07:51:04,VALID,916.646,VALID,0,VALID,93.9281,VALID,135.806,VALID,20.2309,VALID,239,VALID,0,
2012-11-09, 07:52:04,VALID,916.657,VALID,0,VALID,93.4402,VALID,136.773,VALID,20.2909,VALID,239,VALID,0,
2012-11-09, 07:53:04,VALID,916.659,VALID,0,VALID,93.1505,VALID,137.847,VALID,20.2894,VALID,239,VALID,0,
2012-11-09, 07:54:04,VALID,916.653,VALID,0,VALID,93.3182,VALID,138.921,VALID,20.3089,VALID,238,VALID,0,
2012-11-09, 07:55:04,VALID,916.664,VALID,0,VALID,92.838,VALID,139.996,VALID,20.3089,VALID,238,VALID,0,
2012-11-09, 07:56:04,VALID,916.676,VALID,0,VALID,92.4492,VALID,140.963,VALID,20.3089,VALID,228,VALID,0,
2012-11-09, 07:57:04,VALID,916.675,VALID,0,VALID,92.3424,VALID,142.145,VALID,20.3479,VALID,200,VALID,0,
2012-11-09, 07:58:04,VALID,916.709,VALID,0,VALID,91.7707,VALID,143.326,VALID,20.3089,VALID,200,VALID,0,
2012-11-09, 07:59:04,VALID,916.705,VALID,0,VALID,91.6868,VALID,144.508,VALID,20.3674,VALID,200,VALID,0,
2012-11-09, 08:00:04,VALID,916.704,VALID,0,VALID,92.1214,VALID,145.69,VALID,20.4064,VALID,199,VALID,0,
2012-11-09, 08:01:04,VALID,916.751,VALID,0,VALID,92.3043,VALID,146.872,VALID,20.447,VALID,199,VALID,0,
2012-11-09, 08:02:04,VALID,916.714,VALID,0,VALID,91.9384,VALID,148.484,VALID,20.4454,VALID,122,VALID,0,
2012-11-09, 08:03:04,VALID,916.715,VALID,0,VALID,92.2205,VALID,149.666,VALID,20.4845,VALID,122,VALID,0,
2012-11-09, 08:04:04,VALID,916.717,VALID,0,VALID,92.1137,VALID,150.955,VALID,20.504,VALID,133,VALID,0,
2012-11-09, 08:05:04,VALID,916.674,VALID,0,VALID,91.298,VALID,152.244,VALID,20.504,VALID,135,VALID,0,
2012-11-09, 08:06:04,VALID,916.682,VALID,0,VALID,91.1303,VALID,153.533,VALID,20.5235,VALID,139,VALID,0,
2012-11-09, 08:07:04,VALID,916.682,VALID,0,VALID,91.3971,VALID,154.715,VALID,20.582,VALID,139,VALID,0,
2012-11-09, 08:08:04,VALID,916.661,VALID,0,VALID,91.4657,VALID,156.112,VALID,20.621,VALID,137,VALID,0,
2012-11-09, 08:09:04,VALID,916.647,VALID,0,VALID,91.077,VALID,157.294,VALID,20.6015,VALID,135,VALID,0,
2012-11-09, 08:10:04,VALID,916.647,VALID,0,VALID,91.4962,VALID,158.583,VALID,20.621,VALID,135,VALID,0,
2012-11-09, 08:11:04,VALID,916.692,VALID,0,VALID,92.0299,VALID,159.872,VALID,20.6795,VALID,136,VALID,0,
2012-11-09, 08:12:04,VALID,916.688,VALID,0,VALID,91.8012,VALID,161.269,VALID,20.7201,VALID,138,VALID,0,
2012-11-09, 08:13:04,VALID,916.711,VALID,0,VALID,91.3971,VALID,162.773,VALID,20.7185,VALID,138,VALID,0,
2012-11-09, 08:14:04,VALID,916.687,VALID,0,VALID,91.6258,VALID,164.385,VALID,20.7365,VALID,143,VALID,0,
2012-11-09, 08:15:04,VALID,916.653,VALID,0,VALID,91.9155,VALID,166.104,VALID,20.7381,VALID,146,VALID,0,
2012-11-09, 08:16:04,VALID,916.709,VALID,0,VALID,91.6563,VALID,168.038,VALID,20.7381,VALID,148,VALID,0,
2012-11-09, 08:17:04,VALID,916.808,VALID,0,VALID,92.2128,VALID,170.079,VALID,20.7576,VALID,149,VALID,0,
2012-11-09, 08:18:04,VALID,916.732,VALID,0,VALID,92.4339,VALID,172.443,VALID,20.8161,VALID,144,VALID,0,
2012-11-09, 08:19:04,VALID,916.742,VALID,0,VALID,92.4949,VALID,174.592,VALID,20.8551,VALID,128,VALID,0,
2012-11-09, 08:20:04,VALID,916.757,VALID,0,VALID,92.594,VALID,176.848,VALID,20.8551,VALID,128,VALID,0,
2012-11-09, 08:21:04,VALID,916.76,VALID,0,VALID,92.6397,VALID,179.104,VALID,20.8746,VALID,150,VALID,0,
2012-11-09, 08:22:04,VALID,916.79,VALID,0,VALID,92.4263,VALID,181.468,VALID,20.9152,VALID,139,VALID,0,
2012-11-09, 08:23:04,VALID,916.843,VALID,0,VALID,92.2814,VALID,183.724,VALID,20.9136,VALID,159,VALID,0,
2012-11-09, 08:24:04,VALID,916.88,VALID,0,VALID,92.19,VALID,185.766,VALID,20.8941,VALID,166,VALID,0,
2012-11-09, 08:25:04,VALID,916.851,VALID,0,VALID,91.8088,VALID,188.022,VALID,20.8746,VALID,168,VALID,0,
2012-11-09, 08:26:04,VALID,916.861,VALID,0,VALID,92.0756,VALID,189.956,VALID,20.8762,VALID,149,VALID,0,
2012-11-09, 08:27:04,VALID,916.894,VALID,0,VALID,92.2128,VALID,191.675,VALID,20.8551,VALID,148,VALID,0,
2012-11-09, 08:28:04,VALID,916.875,VALID,0,VALID,92.411,VALID,193.394,VALID,20.8957,VALID,129,VALID,0,
2012-11-09, 08:29:04,VALID,916.891,VALID,0,VALID,92.8532,VALID,194.576,VALID,20.9347,VALID,130,VALID,0,
2012-11-09, 08:30:04,VALID,916.907,VALID,0,VALID,92.2662,VALID,195.65,VALID,20.9152,VALID,118,VALID,0,
2012-11-09, 08:31:04,VALID,916.917,VALID,0,VALID,91.5039,VALID,196.295,VALID,20.8762,VALID,102,VALID,0,
2012-11-09, 08:32:04,VALID,916.93,VALID,0,VALID,92.129,VALID,196.832,VALID,20.8941,VALID,98,VALID,0,
2012-11-09, 08:33:04,VALID,916.959,VALID,0,VALID,91.359,VALID,197.369,VALID,20.8356,VALID,115,VALID,0,
2012-11-09, 08:34:04,VALID,916.949,VALID,0,VALID,92.3729,VALID,197.799,VALID,20.8957,VALID,118,VALID,0,
2012-11-09, 08:35:04,VALID,916.971,VALID,0,VALID,92.0299,VALID,198.444,VALID,20.8762,VALID,141,VALID,0,
2012-11-09, 08:36:04,VALID,916.937,VALID,0,VALID,90.955,VALID,198.981,VALID,20.8356,VALID,131,VALID,0,
2012-11-09, 08:37:04,VALID,916.958,VALID,0,VALID,91.3133,VALID,199.733,VALID,20.8551,VALID,126,VALID,0,
2012-11-09, 08:38:04,VALID,916.951,VALID,0,VALID,91.1989,VALID,200.593,VALID,20.8551,VALID,126,VALID,0,
2012-11-09, 08:39:04,VALID,916.926,VALID,0,VALID,91.2828,VALID,201.774,VALID,20.8957,VALID,126,VALID,0,
2012-11-09, 08:40:04,VALID,916.92,VALID,0,VALID,92.0756,VALID,203.171,VALID,20.9331,VALID,126,VALID,0,
2012-11-09, 08:41:04,VALID,916.937,VALID,0,VALID,92.6016,VALID,204.89,VALID,21.0713,VALID,126,VALID,0,
2012-11-09, 08:42:04,VALID,916.947,VALID,0,VALID,91.9994,VALID,206.824,VALID,21.1087,VALID,141,VALID,0,
2012-11-09, 08:43:04,VALID,916.972,VALID,0,VALID,91.3285,VALID,208.866,VALID,21.1689,VALID,141,VALID,0,
2012-11-09, 08:44:04,VALID,916.963,VALID,0,VALID,89.8496,VALID,211.122,VALID,21.2274,VALID,134,VALID,0,
2012-11-09, 08:45:04,VALID,916.994,VALID,0,VALID,89.5599,VALID,213.163,VALID,21.2453,VALID,125,VALID,0,
2012-11-09, 08:46:04,VALID,917.025,VALID,0,VALID,89.3769,VALID,215.312,VALID,21.2453,VALID,116,VALID,0,
2012-11-09, 08:47:04,VALID,917.013,VALID,0,VALID,90.1926,VALID,217.783,VALID,21.325,VALID,122,VALID,0,
2012-11-09, 08:48:04,VALID,917.051,VALID,0,VALID,87.9513,VALID,220.039,VALID,21.325,VALID,119,VALID,0,
2012-11-09, 08:49:04,VALID,917.063,VALID,0,VALID,87.8904,VALID,222.403,VALID,21.4014,VALID,118,VALID,0,
2012-11-09, 08:50:04,VALID,917.043,VALID,0,VALID,86.9679,VALID,224.874,VALID,21.4599,VALID,119,VALID,0,
2012-11-09, 08:51:04,VALID,917.038,VALID,0,VALID,87.3948,VALID,228.635,VALID,21.538,VALID,122,VALID,0,
2012-11-09, 08:52:04,VALID,917.064,VALID,0,VALID,87.959,VALID,232.825,VALID,21.577,VALID,122,VALID,0,
2012-11-09, 08:53:04,VALID,917.026,VALID,0,VALID,88.3401,VALID,237.445,VALID,21.6746,VALID,122,VALID,0,
2012-11-09, 08:54:04,VALID,917.051,VALID,0,VALID,88.1648,VALID,241.957,VALID,21.7526,VALID,140,VALID,0,
2012-11-09, 08:55:04,VALID,917.044,VALID,0,VALID,87.2271,VALID,244.858,VALID,21.7917,VALID,140,VALID,0,
2012-11-09, 08:56:04,VALID,917.062,VALID,0,VALID,86.9527,VALID,247.544,VALID,21.8307,VALID,141,VALID,0,
2012-11-09, 08:57:04,VALID,917.048,VALID,0,VALID,87.3948,VALID,250.66,VALID,21.8697,VALID,153,VALID,0,
2012-11-09, 08:58:04,VALID,917.061,VALID,0,VALID,87.715,VALID,254.85,VALID,21.9283,VALID,159,VALID,0,
2012-11-09, 08:59:04,VALID,917.041,VALID,0,VALID,86.0074,VALID,260.33,VALID,21.9087,VALID,162,VALID,0,
2012-11-09, 09:00:04,VALID,917.046,VALID,0,VALID,85.6796,VALID,268.281,VALID,21.8909,VALID,148,VALID,0,
2012-11-09, 09:01:04,VALID,917.063,VALID,0,VALID,86.4572,VALID,277.091,VALID,21.8892,VALID,152,VALID,0,
2012-11-09, 09:02:04,VALID,917.053,VALID,0,VALID,86.6935,VALID,280.529,VALID,21.9087,VALID,146,VALID,0,
2012-11-09, 09:03:04,VALID,917.059,VALID,0,VALID,87.6464,VALID,287.835,VALID,21.9478,VALID,151,VALID,0,
2012-11-09, 09:04:04,VALID,917.072,VALID,0,VALID,87.5778,VALID,292.347,VALID,22.0258,VALID,151,VALID,0,
2012-11-09, 09:05:04,VALID,917.102,VALID,0,VALID,84.6123,VALID,296.86,VALID,22.0258,VALID,151,VALID,0,
2012-11-09, 09:06:04,VALID,917.088,VALID,0,VALID,86.1751,VALID,303.521,VALID,22.1039,VALID,151,VALID,0,
2012-11-09, 09:07:04,VALID,917.088,VALID,0,VALID,84.8258,VALID,309.753,VALID,22.2015,VALID,151,VALID,0,
2012-11-09, 09:08:04,VALID,917.107,VALID,0,VALID,82.9809,VALID,318.456,VALID,22.3381,VALID,151,VALID,0,
2012-11-09, 09:09:04,VALID,917.162,VALID,0,VALID,82.2872,VALID,325.332,VALID,22.4357,VALID,151,VALID,0,
2012-11-09, 09:10:04,VALID,917.143,VALID,0,VALID,83.667,VALID,331.993,VALID,22.5706,VALID,151,VALID,0,
2012-11-09, 09:11:04,VALID,917.169,VALID,0,VALID,83.6136,VALID,333.927,VALID,22.6894,VALID,151,VALID,0,
2012-11-09, 09:12:04,VALID,917.176,VALID,0,VALID,82.6836,VALID,335.754,VALID,22.7463,VALID,151,VALID,0,
2012-11-09, 09:13:04,VALID,917.22,VALID,0,VALID,81.5401,VALID,344.779,VALID,22.8243,VALID,151,VALID,0,
2012-11-09, 09:14:04,VALID,917.192,VALID,0,VALID,83.0114,VALID,348.002,VALID,22.9627,VALID,133,VALID,0,
2012-11-09, 09:15:04,VALID,917.185,VALID,0,VALID,82.7598,VALID,344.671,VALID,23.0018,VALID,160,VALID,0,
2012-11-09, 09:16:04,VALID,917.204,VALID,0,VALID,80.6252,VALID,338.547,VALID,22.9024,VALID,168,VALID,0,
2012-11-09, 09:17:04,VALID,917.167,VALID,0,VALID,81.8831,VALID,348.217,VALID,22.8651,VALID,165,VALID,0,
2012-11-09, 09:18:04,VALID,917.179,VALID,0,VALID,79.2225,VALID,351.655,VALID,22.748,VALID,158,VALID,0,
2012-11-09, 09:19:04,VALID,917.171,VALID,0,VALID,80.5719,VALID,358.853,VALID,22.6309,VALID,164,VALID,0,
2012-11-09, 09:20:04,VALID,917.186,VALID,0,VALID,82.0203,VALID,370.994,VALID,22.6699,VALID,164,VALID,0,
2012-11-09, 09:21:04,VALID,917.147,VALID,0,VALID,82.6988,VALID,380.879,VALID,22.7267,VALID,164,VALID,0,
2012-11-09, 09:22:04,VALID,917.184,VALID,0,VALID,82.0203,VALID,394.416,VALID,22.8243,VALID,203,VALID,0,
2012-11-09, 09:23:04,VALID,917.153,VALID,0,VALID,83.2096,VALID,416.334,VALID,22.9415,VALID,126,VALID,0,
2012-11-09, 09:24:04,VALID,917.208,VALID,0,VALID,81.3495,VALID,422.351,VALID,22.8634,VALID,150,VALID,0,
2012-11-09, 09:25:04,VALID,917.182,VALID,0,VALID,82.9961,VALID,431.913,VALID,22.8439,VALID,150,VALID,0,
2012-11-09, 09:26:04,VALID,917.19,VALID,0,VALID,84.0787,VALID,434.492,VALID,23.0018,VALID,141,VALID,0,
2012-11-09, 09:27:04,VALID,917.196,VALID,0,VALID,81.4257,VALID,458.774,VALID,23.0195,VALID,133,VALID,0,
2012-11-09, 09:28:04,VALID,917.215,VALID,0,VALID,81.4028,VALID,469.303,VALID,22.9805,VALID,151,VALID,0,
2012-11-09, 09:29:04,VALID,917.198,VALID,0,VALID,81.9517,VALID,490.361,VALID,22.9805,VALID,143,VALID,0,
2012-11-09, 09:30:04,VALID,917.236,VALID,0,VALID,82.0127,VALID,501.428,VALID,23.0195,VALID,140,VALID,0,
2012-11-09, 09:31:04,VALID,917.206,VALID,0,VALID,80.8997,VALID,529.148,VALID,23.0781,VALID,152,VALID,0,
2012-11-09, 09:32:04,VALID,917.225,VALID,0,VALID,80.1221,VALID,536.131,VALID,23.1757,VALID,192,VALID,0,
2012-11-09, 09:33:04,VALID,917.236,VALID,0,VALID,79.4741,VALID,522.057,VALID,23.3727,VALID,171,VALID,0,
2012-11-09, 09:34:04,VALID,917.225,VALID,0,VALID,78.91,VALID,550.958,VALID,23.5094,VALID,169,VALID,0,
2012-11-09, 09:35:04,VALID,917.234,VALID,0,VALID,76.9203,VALID,511.312,VALID,23.5076,VALID,157,VALID,0,
2012-11-09, 09:36:04,VALID,917.249,VALID,0,VALID,77.3319,VALID,473.386,VALID,23.5466,VALID,157,VALID,0,
2012-11-09, 09:37:04,VALID,917.256,VALID,0,VALID,77.8884,VALID,490.147,VALID,23.7028,VALID,164,VALID,0,
2012-11-09, 09:38:04,VALID,917.231,VALID,0,VALID,76.1656,VALID,505.94,VALID,23.8199,VALID,164,VALID,0,
2012-11-09, 09:39:04,VALID,917.237,VALID,0,VALID,76.0664,VALID,421.814,VALID,23.9158,VALID,199,VALID,0,
2012-11-09, 09:40:04,VALID,917.228,VALID,0,VALID,76.0283,VALID,500.139,VALID,24.0134,VALID,200,VALID,0,
2012-11-09, 09:41:04,VALID,917.259,VALID,0,VALID,78.1934,VALID,547.305,VALID,24.111,VALID,201,VALID,0,
2012-11-09, 09:42:04,VALID,917.245,VALID,0,VALID,77.5606,VALID,495.089,VALID,24.2086,VALID,186,VALID,0,
2012-11-09, 09:43:04,VALID,917.237,VALID,0,VALID,77.6674,VALID,488.427,VALID,24.15,VALID,130,VALID,0,
2012-11-09, 09:44:04,VALID,917.255,VALID,0,VALID,77.1413,VALID,512.172,VALID,24.0329,VALID,108,VALID,0,
2012-11-09, 09:45:04,VALID,917.264,VALID,0,VALID,75.6472,VALID,558.479,VALID,24.0134,VALID,72,VALID,0,
2012-11-09, 09:46:04,VALID,917.253,VALID,0,VALID,76.2342,VALID,497.345,VALID,24.2086,VALID,73,VALID,0,
2012-11-09, 09:47:04,VALID,917.266,VALID,0,VALID,75.8911,VALID,457.055,VALID,24.3453,VALID,179,VALID,0,
2012-11-09, 09:48:04,VALID,917.266,VALID,0,VALID,76.9279,VALID,422.459,VALID,24.3667,VALID,184,VALID,0,
2012-11-09, 09:49:04,VALID,917.278,VALID,0,VALID,76.0893,VALID,421.062,VALID,24.2477,VALID,174,VALID,0,
2012-11-09, 09:50:04,VALID,917.268,VALID,0,VALID,76.2037,VALID,432.021,VALID,24.2867,VALID,181,VALID,0,
2012-11-09, 09:51:04,VALID,917.278,VALID,0,VALID,76.6458,VALID,434.814,VALID,24.4039,VALID,201,VALID,0,
2012-11-09, 09:52:04,VALID,917.285,VALID,0,VALID,76.0588,VALID,424.715,VALID,24.4429,VALID,183,VALID,0,
2012-11-09, 09:53:04,VALID,917.285,VALID,0,VALID,73.2915,VALID,412.574,VALID,24.5015,VALID,150,VALID,0,
2012-11-09, 09:54:04,VALID,917.279,VALID,0,VALID,74.435,VALID,398.607,VALID,24.5601,VALID,186,VALID,0,
2012-11-09, 09:55:04,VALID,917.313,VALID,0,VALID,72.9713,VALID,383.135,VALID,24.6187,VALID,188,VALID,0,
2012-11-09, 09:56:04,VALID,917.299,VALID,0,VALID,73.3754,VALID,375.399,VALID,24.6187,VALID,188,VALID,0,
2012-11-09, 09:57:04,VALID,917.326,VALID,0,VALID,73.1619,VALID,372.176,VALID,24.6382,VALID,149,VALID,0,
2012-11-09, 09:58:04,VALID,917.324,VALID,0,VALID,71.5381,VALID,371.209,VALID,24.5229,VALID,166,VALID,0,
2012-11-09, 09:59:04,VALID,917.343,VALID,0,VALID,72.1175,VALID,370.027,VALID,24.521,VALID,166,VALID,0,
2012-11-09, 10:00:04,VALID,917.367,VALID,0,VALID,74.1758,VALID,370.565,VALID,24.6382,VALID,166,VALID,0,
2012-11-09, 10:01:04,VALID,917.409,VALID,0,VALID,73.2534,VALID,371.102,VALID,24.7554,VALID,166,VALID,0,
2012-11-09, 10:02:04,VALID,917.381,VALID,0,VALID,70.7377,VALID,373.143,VALID,24.7554,VALID,191,VALID,0,
2012-11-09, 10:03:04,VALID,917.397,VALID,0,VALID,72.9561,VALID,376.689,VALID,24.5778,VALID,189,VALID,0,
2012-11-09, 10:04:04,VALID,917.405,VALID,0,VALID,72.3615,VALID,381.631,VALID,24.482,VALID,189,VALID,0,
2012-11-09, 10:05:04,VALID,917.385,VALID,0,VALID,74.214,VALID,387.325,VALID,24.4234,VALID,166,VALID,0,
2012-11-09, 10:06:04,VALID,917.36,VALID,0,VALID,73.6727,VALID,392.912,VALID,24.4429,VALID,166,VALID,0,
2012-11-09, 10:07:04,VALID,917.369,VALID,0,VALID,73.7413,VALID,397.532,VALID,24.5406,VALID,164,VALID,0,
2012-11-09, 10:08:04,VALID,917.373,VALID,0,VALID,70.6614,VALID,400.218,VALID,24.6382,VALID,186,VALID,0,
2012-11-09, 10:09:04,VALID,917.367,VALID,0,VALID,71.3704,VALID,399.896,VALID,24.7163,VALID,187,VALID,0,
2012-11-09, 10:10:04,VALID,917.363,VALID,0,VALID,72.6054,VALID,397.962,VALID,24.7749,VALID,186,VALID,0,
2012-11-09, 10:11:04,VALID,917.399,VALID,0,VALID,71.3094,VALID,395.491,VALID,24.7749,VALID,149,VALID,0,
2012-11-09, 10:12:04,VALID,917.394,VALID,0,VALID,71.9269,VALID,393.342,VALID,24.734,VALID,194,VALID,0,
2012-11-09, 10:13:04,VALID,917.382,VALID,0,VALID,70.1735,VALID,392.912,VALID,24.7944,VALID,201,VALID,0,
2012-11-09, 10:14:04,VALID,917.341,VALID,0,VALID,67.0708,VALID,393.987,VALID,24.814,VALID,201,VALID,0,
2012-11-09, 10:15:04,VALID,917.342,VALID,0,VALID,69.4951,VALID,395.921,VALID,24.7926,VALID,159,VALID,0,
2012-11-09, 10:16:04,VALID,917.352,VALID,0,VALID,69.1139,VALID,400.541,VALID,24.814,VALID,159,VALID,0,
2012-11-09, 10:17:04,VALID,917.341,VALID,0,VALID,68.8776,VALID,406.235,VALID,24.9116,VALID,159,VALID,0,
2012-11-09, 10:18:04,VALID,917.332,VALID,0,VALID,67.5358,VALID,408.491,VALID,25.0288,VALID,159,VALID,0,
2012-11-09, 10:19:04,VALID,917.296,VALID,0,VALID,68.7403,VALID,413.219,VALID,25.1069,VALID,217,VALID,0,
2012-11-09, 10:20:04,VALID,917.326,VALID,0,VALID,67.6273,VALID,423.748,VALID,25.185,VALID,217,VALID,0,
2012-11-09, 10:21:04,VALID,917.315,VALID,0,VALID,67.978,VALID,434.707,VALID,25.2222,VALID,217,VALID,0,
2012-11-09, 10:22:04,VALID,917.269,VALID,0,VALID,67.8179,VALID,456.625,VALID,25.2222,VALID,158,VALID,0,
2012-11-09, 10:23:04,VALID,917.281,VALID,0,VALID,69.1977,VALID,474.353,VALID,25.1636,VALID,167,VALID,0,
2012-11-09, 10:24:04,VALID,917.286,VALID,0,VALID,68.0085,VALID,494.659,VALID,25.1245,VALID,183,VALID,0,
2012-11-09, 10:25:04,VALID,917.255,VALID,0,VALID,69.3045,VALID,531.404,VALID,25.2417,VALID,183,VALID,0,
2012-11-09, 10:26:04,VALID,917.253,VALID,0,VALID,68.6336,VALID,688.375,VALID,25.3608,VALID,203,VALID,0,